Regional Weather Roundup
Issued by NWS

Home | Current Version | Previous Version | Graphics & Text | Print | Product List | Glossary On
Versions: 1 2 3 4 5 6 7 8 9 10 11 12 13 14 15 16 17 18 19 20 21 22 23 24 25 26 27 28 29 30 31 32 33 34 35 36 37 38 39 40 41 42 43 44 45 46 47 48 49 50
459
ASUS43 KMPX 210910
RWRMN
WEATHER ROUNDUP FOR MINNESOTA
NATIONAL WEATHER SERVICE TWIN CITIES/CHANHASSEN MN
300 AM CST TUE NOV 21 2017


NOTE: "FAIR" INDICATES FEW OR NO CLOUDS BELOW 12,000 FEET WITH NO
SIGNIFICANT WEATHER AND/OR OBSTRUCTIONS TO VISIBILITY. N/A MEANS
CURRENT SKY AND/OR WEATHER CONDITIONS ARE NOT AVAILABLE.

MNZ060>063-068>070-211000-
   Twin Cities Metro

CITY           SKY/WX    TMP DP  RH WIND       PRES   REMARKS
TWIN CITIES    PTCLDY    33  19  56 W17G28    29.64R WCI  22
ST PAUL        CLEAR     34  17  50 W24G33    29.64R WCI  21
CRYSTAL        CLEAR     32  17  54 W20G29    29.63R WCI  20
BLAINE         CLEAR     34  21  60 W21G28    29.63R WCI  22
LAKEVILLE      CLEAR     32  16  51 W21G31    29.64R WCI  20
EDEN PRAIRIE   PTCLDY    33  15  47 NW21G37   29.65R WCI  21
SOUTH ST PAUL  CLEAR     35  17  49 W20G26    29.63R WCI  23
LAKE ELMO      FAIR      34  21  60 W14G23    29.62R WCI  24
$$
MNZ001>005-007-008-013>017-022>024-027-028-211000-
   Northwest Minnesota

CITY           SKY/WX    TMP DP  RH WIND       PRES   REMARKS
BEMIDJI        FLURRIES  16   9  71 NW22G35   29.66R WCI  -1
HALLOCK        LGT SNOW  16  12  86 NW24G35   29.83R WCI  -3
ROSEAU         FLURRIES  18  12  79 NW22G31   29.70R WCI   0
WARROAD        FLURRIES  18  10  73 NW21G26   29.68R WCI   1
THIEF RVR FALL LGT SNOW  16  10  79 NW28      29.76R FOG     WCI  -4
CROOKSTON      LGT SNOW  18  12  79 NW23G30   29.83R WCI   0
FOSSTON        LGT SNOW  14   9  79 NW21G31   29.74R WCI  -4
DETROIT LAKES  CLOUDY    21  12  68 NW26G36   29.74R WCI   4
MOORHEAD       CLOUDY    21  10  63 NW30G44   29.83R WCI   3
PARK RAPIDS    CLOUDY    21  10  62 NW24G41   29.65R WCI   4
MAHNOMEN       CLOUDY    17   9  71 NW29G37   29.75R WCI  -3
$$
MNZ006-009>011-018-025>026-211000-
   North Central Minnesota

CITY           SKY/WX    TMP DP  RH WIND       PRES   REMARKS
BAUDETTE       FLURRIES  18  11  74 NW26G37   29.60R WCI  -1
FLAG ISLAND    CLOUDY    18  10  73 N24       29.64R HAZE    WCI   0
INTL FALLS     LGT SNOW  20  14  77 W17G28    29.52R WCI   5
WASKISH        LGT SNOW  18  14  86 W17G28    29.62R WCI   2
BIG FORK       FLURRIES  21  10  63 W14G25    29.55R WCI   8
LONGVILLE      LGT SNOW  21  16  79 W16G32    29.61R WCI   7
GRAND RAPIDS   FLURRIES  22  14  71 NW20G25   29.56R WCI   7
CRANE LAKE     LGT SNOW  21  14  73 W8G23     29.48R WCI  12
ORR            FLURRIES  19  10  68 W14G30    29.47R WCI   6
COOK           FLURRIES  21  12  68 W26G35    29.49R WCI   4
WALKER         FLURRIES  19  11  73 NW25G36   29.64R WCI   1
$$
MNZ012-019>021-037-211000-
   Northeast Minnesota

CITY           SKY/WX    TMP DP  RH WIND       PRES   REMARKS
DULUTH         CLOUDY    26  16  65 W20G38    29.46R WCI  12
ELY            FLURRIES  21  12  68 W18G35    29.41R WCI   6
HIBBING        CLOUDY    22  11  62 NW23G31   29.50R WCI   6
EVELETH        MIX PCPN  23  12  63 NW24G38   29.49R WCI   7
DULUTH HARBOR  CLOUDY    30  19  64 W28G38    29.51R WCI  16
TWO HARBORS    FLURRIES  32  21  64 W20G33    29.41R WCI  20
SILVER BAY     FLURRIES  28  19  69 W12G30    29.38R WCI  18
GRAND MARAIS     N/A     31  20  63 W15G30    29.32R WCI  20
G MARAIS ARPRT CLOUDY    23  14  68 W18G32    29.24R WCI   9
$$
MNZ029>031-032-039>041-046>048-054>057-064-211000-
   West Central Minnesota

CITY           SKY/WX    TMP DP  RH WIND       PRES   REMARKS
FERGUS FALLS   CLOUDY    23  14  68 NW36G43   29.80R WCI   4
WHEATON        CLOUDY    21  10  63 W23G32    29.86R WCI   5
MORRIS         CLOUDY    25  12  58 NW26G36   29.78R WCI   9
ALEXANDRIA     LGT SNOW  23  16  74 NW26G36   29.73R WCI   6
ELBOW LAKE     FLURRIES  22  14  70 NW28G36   29.78R WCI   5
WADENA         MIX PCPN  21  12  68 NW25G36   29.68R WCI   4
GLENWOOD       FLURRIES  25  18  74 W22G37    29.73R WCI  10
APPLETON       CLOUDY    27  10  50 NW29G37   29.80R WCI  11
BENSON         PTCLDY    25  14  63 N24G35    29.79R WCI   9
ORTONVILLE     MOCLDY    23  10  58 MISG      29.82R
MADISON        MOCLDY    30  19  64 NW16G28   29.81R WCI  19
WILLMAR        FAIR      27  19  74 NW22G30   29.76R WCI  12
$$
MNZ033>034-036-042>043-049>051-058-059-211000-
   Central Minnesota

CITY           SKY/WX    TMP DP  RH WIND       PRES   REMARKS
ST CLOUD       CLOUDY    26  14  60 NW28G41   29.67R WCI  10
SAUK CENTRE    FLURRIES  25  15  66 NW23G30   29.71R WCI  10
PAYNESVILLE    CLOUDY    27  19  72 NW18G25   29.72R WCI  14
AITKIN         LGT RAIN  23  12  63 W14G21    29.59R WCI  11
PINE RIVER     CLOUDY    21  10  63 NW14G24   29.67R WCI   8
BRAINERD       FLURRIES  24  13  62 NW16G31   29.64R WCI  11
STAPLES        CLOUDY    21  10  63 NW22G28   29.67R WCI   5
LONG PRAIRIE   CLOUDY    25  12  58 W22G28    29.67R WCI  10
LITTLE FALLS   CLOUDY    25   7  46 W17G31    29.68R WCI  11
LITCHFIELD     CLEAR     28  18  64 NW21G37   29.71R WCI  15
BUFFALO        PTCLDY    29  19  66 W22G30    29.68R WCI  16
MAPLE LAKE     MOCLDY    30  22  72 W15G28    29.68R WCI  19
HUTCHINSON     PTCLDY    29  18  64 W21G30    29.72R WCI  16
$$
MNZ037-044-045-052-053-211000-
   East Central Minnesota

CITY           SKY/WX    TMP DP  RH WIND       PRES   REMARKS
PRINCETON      MOCLDY    28  16  59 W22G37    29.65R WCI  15
MORA           PTCLDY    27  16  63 NW16G36   29.62R WCI  14
CAMBRIDGE      MOCLDY    32  19  59 W14G31    29.63R WCI  22
RUSH CITY      PTCLDY    30  19  62 W16G25    29.59R WCI  19
MOOSE LAKE     CLOUDY    30  19  64 NW13G24   29.52R WCI  20
HINCKLEY       CLOUDY    32  23  69 W13G24    29.57R WCI  22
CLOQUET        FLURRIES  28  16  59 W22G28    29.49R WCI  15
MCGREGOR       CLOUDY    27  16  63 W10G25    29.57R WCI  17
$$
MNZ071>073-080-081-089-090-097-098-211000-
   Southwest Minnesota

CITY           SKY/WX    TMP DP  RH WIND       PRES   REMARKS
MONTEVIDEO     CLOUDY    27  12  54 N22G33    29.78R WCI  12
GRANITE FALLS  CLEAR     30  17  59 NW22      29.80R WCI  17
CANBY          CLOUDY    32  13  45 W24G35    29.82R WCI  19
MARSHALL       CLOUDY    34  12  40 NW33G46   29.76R WCI  20
REDWOOD FALLS  CLEAR     31  12  45 NW16G30   29.76R WCI  20
OLIVIA         CLEAR     30  19  64 NW21G26   29.75R WCI  17
PIPESTONE      CLOUDY    34  18  51 NW17G26   29.79R WCI  23
WINDOM           N/A     36  16  44 W17G24    29.76R
WORTHINGTON    CLOUDY    35  14  42 NW13      29.79R WCI  26
JACKSON        CLOUDY    36  16  44 NW16G22   29.76R
SLAYTON        CLOUDY    35  18  50 NW21G29   29.78R WCI  23
$$
MNZ065>067-074>077-082>085-091>093-211000-
   South Central Minnesota

CITY           SKY/WX    TMP DP  RH WIND       PRES   REMARKS
MANKATO        PTCLDY    33  10  38 NW28G35   29.72R WCI  20
NEW ULM        PTCLDY    32  10  40 NW28G39   29.74R WCI  18
ST JAMES       CLOUDY    36  14  41 NW17G26   29.76R
FAIRMONT       CLOUDY    36  16  44 NW17      29.76R
GLENCOE        PTCLDY    32  17  53 W28G36    29.70R WCI  18
FARIBAULT      CLEAR     34  18  51 W17G26    29.67R WCI  23
OWATONNA       PTCLDY    34  18  51 W21G28    29.68R WCI  22
WASECA         MOCLDY    34  18  51 W21G29    29.72R WCI  22
ALBERT LEA     CLOUDY    36  12  38 NW15G25   29.70R
$$
MNZ078>079-086>088-094>096-211000-
   Southeast Minnesota

CITY           SKY/WX    TMP DP  RH WIND       PRES   REMARKS
ROCHESTER      PTCLDY    35  21  56 NW25G32   29.64R WCI  23
RED WING       CLEAR     37  18  44 W15       29.60R
STANTON        CLEAR     35  18  50 W18G24    29.64R WCI  24
DODGE CENTER   CLEAR     34  18  51 W21G30    29.65R WCI  22
WINONA         CLEAR     41  23  48 W15G22    29.60R
AUSTIN         CLOUDY    36  19  51 NW20G26   29.68R
PRESTON        CLEAR     35  22  58 NW18G29   29.63R WCI  24
$$
ABBREVIATIONS USED IN REMARKS
   TC - TEMPERATURES IN CELSIUS
  WCI - WIND CHILL INDEX
   HX - HEAT INDEX
  VSB - VISIBILITY
$$




USA.gov is the U.S. government's official web portal to all federal, state and local government web resources and services.